Regional Weather Roundup
Issued by NWS

Home | Current Version | Previous Version | Graphics & Text | Print | Product List | Glossary On
Versions: 1 2 3 4 5 6 7 8 9 10 11 12 13 14 15 16 17 18 19 20 21 22 23 24 25 26 27 28 29 30 31 32 33 34 35 36 37 38 39 40 41 42 43 44 45 46 47 48 49 50
000
ASUS43 KLSX 240107
RWRMO

WEATHER SUMMARY FOR MISSOURI
NATIONAL WEATHER SERVICE SPRINGFIELD MO
800 PM CDT SAT MAY 23 2015

NOTE: "FAIR" INDICATES FEW OR NO CLOUDS BELOW 12,000 FEET WITH NO
       SIGNIFICANT WEATHER AND/OR OBSTRUCTIONS TO VISIBILITY.
       CURRENT SKY AND/OR WEATHER CONDITIONS ARE NOT AVAILABLE FOR
       CHILLICOTHE AND FARMINGTON.

MOZ001>031-035>038-043-044-053-054-240200-
...NORTHERN AND WESTERN MISSOURI...

CITY           SKY/WX    TMP DP  RH WIND       PRES   REMARKS
KANSAS CTY INT RAIN      64  61  90 E7        30.07S FOG
KANSAS C DTWN  HVY RAIN  65  61  87 E5        30.05S FOG
LEE`S SUMMIT   LGT RAIN  65  58  78 E12       30.06S
ST JOSEPH      RAIN      63  61  93 CALM      30.09S FOG
CHILLICOTHE      N/A     69  56  62 SE6       30.10S
KIRKSVILLE     CLOUDY    67  55  65 SE7       30.13S

$$
MOZ066>068-077>081-088>096-101>105-240200-
...SOUTHWEST MISSOURI...

CITY           SKY/WX    TMP DP  RH WIND       PRES   REMARKS
SPRINGFIELD    CLOUDY    69  58  67 SE16      30.06F
JOPLIN         CLOUDY    67  64  90 E10       29.99F

$$
MOZ032>034-039>042-045>050-055>058-069>072-240200-
...CENTRAL MISSOURI...

CITY           SKY/WX    TMP DP  RH WIND       PRES   REMARKS
COLUMBIA       CLOUDY    68  56  65 SE7       30.13R
JEFFERSON CITY CLOUDY    70  57  63 E6        30.11F
ROLLA          CLOUDY    67  51  56 SE8       30.13S
SEDALIA        CLOUDY    66  56  70 E9        30.10F
WHITEMAN AFB   CLOUDY    65  57  73 SE7       30.07F
OSAGE BEACH    CLOUDY    66  57  72 SE5       30.11S

$$
MOZ051-052-059>065-240200-
...EAST CENTRAL MISSOURI...

CITY           SKY/WX    TMP DP  RH WIND       PRES   REMARKS
ST LOUIS INTL  CLOUDY    75  47  36 SE10      30.16S
SPIRIT OF STL  CLOUDY    73  50  44 S3        30.14S
ST CHARLES     CLOUDY    73  52  47 SE6       30.14F

$$
MOZ072>076-082>087-097>100-106>115-240200-
...SOUTH CENTRAL AND SOUTHEAST MISSOURI...

CITY           SKY/WX    TMP DP  RH WIND       PRES   REMARKS
CAPE GIRARDEAU MOCLDY    70  56  61 SE8       30.16F
FARMINGTON     MOCLDY    68  52  56 S6        30.21R
POPLAR BLUFF   PTCLDY    71  58  63 SE3       30.14S
WEST PLAINS    CLOUDY    68  55  63 E7        30.15S

$$



USA.gov is the U.S. government's official web portal to all federal, state and local government web resources and services.